GALAXY 28 (G-28)

Last updated on Thu Oct 30 2025 00:02:47 GMT+0000 (Coordinated Universal Time)

1 28702U 05022A 25302.45872066 -.00000176 00000+0 00000+0 0 9991 2 28702 2.7008 81.7913 0001722 161.7637 230.9458 1.00273781 49665
UTC large
Height (km)
Speed (km/s)
/
Latitude / Longitude
Inclination (degrees)
Orbital Period (minutes)
Azimuth
Elevation
Range (km)
Doppler Factor

Next 0 passes for location: London (51.5072 / 0.1276)

Sorry there are no passes over London.